This is the latest recevied weather packets stored in our database for station/object N8HON. If no packets are shown the sender has not sent any weather packets the latest 10 day(s).
| Time | Temp. | Humidity | Pressure | Rain* | Wind** | Luminosity | Snow |
|---|---|---|---|---|---|---|---|
| 1777876686 | 7.22° C | 59% | 1013.9 hPa | 0 mm | - | 0 W/m² | - |
| 1777876383 | 7.22° C | 61% | 1013.8 hPa | 0 mm | - | 0 W/m² | - |
| 1777876079 | 7.22° C | 58% | 1013.9 hPa | 0 mm | - | 0 W/m² | - |
| 1777875775 | 7.22° C | 59% | 1013.8 hPa | 0 mm | - | 0 W/m² | - |
| 1777875472 | 7.22° C | 60% | 1013.9 hPa | 0 mm | - | 0 W/m² | - |
| 1777875169 | 7.22° C | 59% | 1013.8 hPa | 0 mm | - | 0 W/m² | - |
| 1777874866 | 7.22° C | 61% | 1013.8 hPa | 0 mm | - | 0 W/m² | - |
| 1777874561 | 7.22° C | 62% | 1014.1 hPa | 0 mm | - | 0 W/m² | - |
| 1777874259 | 7.22° C | 61% | 1013.8 hPa | 0 mm | - | 0 W/m² | - |
| 1777873956 | 7.22° C | 61% | 1014 hPa | 0 mm | - | 0 W/m² | - |
| 1777873653 | 7.22° C | 60% | 1014 hPa | 0 mm | - | 0 W/m² | - |
| 1777873351 | 7.22° C | 60% | 1014 hPa | 0 mm | - | 0 W/m² | - |
| 1777873047 | 7.78° C | 58% | 1014 hPa | 0 mm | - | 0 W/m² | - |
| 1777872744 | 7.78° C | 58% | 1014 hPa | 0 mm | - | 0 W/m² | - |
| 1777872441 | 7.78° C | 58% | 1014 hPa | 0 mm | - | 0 W/m² | - |
| 1777872140 | 7.78° C | 59% | 1014 hPa | 0 mm | - | 0 W/m² | - |
| 1777871836 | 8.33° C | 54% | 1014 hPa | 0 mm | - | 0 W/m² | - |
| 1777871532 | 8.33° C | 56% | 1014.1 hPa | 0 mm | - | 0 W/m² | - |
| 1777871229 | 7.78° C | 54% | 1014.1 hPa | 0 mm | - | 0 W/m² | - |
| 1777870926 | 7.78° C | 56% | 1014 hPa | 0 mm | - | 0 W/m² | - |
| 1777870623 | 7.78° C | 56% | 1014 hPa | 0 mm | - | 0 W/m² | - |
| 1777870317 | 7.78° C | 63% | 1013.9 hPa | 0 mm | - | 0 W/m² | - |
| 1777870015 | 7.78° C | 60% | 1014 hPa | 0 mm | - | 0 W/m² | - |
| 1777869712 | 7.78° C | 57% | 1013.8 hPa | 0 mm | - | 0 W/m² | - |
| 1777869409 | 8.33° C | 57% | 1014.2 hPa | 0 mm | - | 0 W/m² | - |
* Rain latest hour (hover to see other rain measurements)
** Current wind speed in m/s (hover to see current wind gust speed)